TimeCDT,TemperatureF,Dew PointF,Humidity,Sea Level PressureIn,VisibilityMPH,Wind Direction,Wind SpeedMPH,Gust SpeedMPH,PrecipitationIn,Events,Conditions,WindDirDegrees,DateUTC
12:53 AM,59.0,59.0,100,29.82,5.0,SE,3.5,-,N/A,,Clear,140,2013-04-15 05:53:00
1:17 AM,59.0,59.0,100,29.83,2.5,Calm,Calm,-,N/A,,Partly Cloudy,0,2013-04-15 06:17:00
1:31 AM,59.0,57.2,94,29.83,1.5,Calm,Calm,-,N/A,,Mostly Cloudy,0,2013-04-15 06:31:00
1:50 AM,57.2,57.2,100,29.82,0.8,Calm,Calm,-,N/A,,Overcast,0,2013-04-15 06:50:00
1:53 AM,57.9,57.0,97,29.81,0.8,Calm,Calm,-,N/A,,Overcast,0,2013-04-15 06:53:00
2:04 AM,57.2,57.2,100,29.83,1.2,Calm,Calm,-,N/A,,Overcast,0,2013-04-15 07:04:00
2:18 AM,57.2,57.2,100,29.83,1.0,Calm,Calm,-,N/A,,Mist,0,2013-04-15 07:18:00
2:31 AM,57.2,55.4,94,29.83,0.5,Calm,Calm,-,N/A,Fog,Fog,0,2013-04-15 07:31:00
2:43 AM,57.2,57.2,100,29.83,2.0,Calm,Calm,-,N/A,,Overcast,0,2013-04-15 07:43:00
2:53 AM,57.9,57.9,100,29.82,2.0,Calm,Calm,-,N/A,,Overcast,0,2013-04-15 07:53:00
3:01 AM,57.2,57.2,100,29.84,1.2,Calm,Calm,-,0.01,,Overcast,0,2013-04-15 08:01:00
3:14 AM,59.0,57.2,94,29.84,2.0,Calm,Calm,-,0.01,,Overcast,0,2013-04-15 08:14:00
3:29 AM,57.2,57.2,100,29.84,3.0,Calm,Calm,-,0.01,,Overcast,0,2013-04-15 08:29:00
3:53 AM,57.9,57.9,100,29.83,6.0,Calm,Calm,-,0.01,,Overcast,0,2013-04-15 08:53:00
4:53 AM,59.0,59.0,100,29.84,3.0,Calm,Calm,-,N/A,,Overcast,0,2013-04-15 09:53:00
5:07 AM,59.0,59.0,100,29.86,1.8,Calm,Calm,-,N/A,,Overcast,0,2013-04-15 10:07:00
5:26 AM,59.0,59.0,100,29.86,0.8,Calm,Calm,-,N/A,,Mist,0,2013-04-15 10:26:00
5:53 AM,59.0,59.0,100,29.86,0.8,SSE,3.5,-,N/A,,Mist,160,2013-04-15 10:53:00
6:17 AM,59.0,59.0,100,29.87,1.2,Calm,Calm,-,N/A,,Overcast,0,2013-04-15 11:17:00
6:53 AM,59.0,59.0,100,29.88,0.5,Calm,Calm,-,N/A,Fog,Fog,0,2013-04-15 11:53:00
7:53 AM,60.1,60.1,100,29.91,0.5,Calm,Calm,-,N/A,Fog,Fog,0,2013-04-15 12:53:00
8:53 AM,61.0,61.0,100,29.93,0.5,SE,4.6,-,N/A,Fog,Fog,130,2013-04-15 13:53:00
9:22 AM,62.6,62.6,100,29.94,1.5,SSE,5.8,-,N/A,,Overcast,160,2013-04-15 14:22:00
9:37 AM,62.6,62.6,100,29.94,2.0,SSE,3.5,-,N/A,,Overcast,160,2013-04-15 14:37:00
9:53 AM,63.0,63.0,100,29.93,4.0,SSE,4.6,-,N/A,,Overcast,150,2013-04-15 14:53:00
10:51 AM,66.2,62.6,88,29.95,8.0,SSE,8.1,-,N/A,,Overcast,160,2013-04-15 15:51:00
10:53 AM,66.0,64.0,93,29.95,8.0,SSE,8.1,-,N/A,,Overcast,160,2013-04-15 15:53:00
11:31 AM,69.8,64.4,83,29.96,9.0,SE,4.6,-,N/A,,Overcast,140,2013-04-15 16:31:00
11:53 AM,71.1,64.9,81,29.95,10.0,SSE,6.9,-,N/A,,Overcast,150,2013-04-15 16:53:00
12:19 PM,71.6,64.4,78,29.95,10.0,ESE,5.8,-,N/A,,Scattered Clouds,110,2013-04-15 17:19:00
12:31 PM,71.6,64.4,78,29.95,10.0,SSE,6.9,-,N/A,,Mostly Cloudy,150,2013-04-15 17:31:00
12:53 PM,73.9,66.0,76,29.94,10.0,Variable,6.9,-,N/A,,Scattered Clouds,0,2013-04-15 17:53:00
1:53 PM,77.0,66.9,71,29.92,10.0,South,5.8,-,N/A,,Scattered Clouds,170,2013-04-15 18:53:00
2:06 PM,77.0,68.0,74,29.93,10.0,SSE,5.8,-,N/A,,Mostly Cloudy,150,2013-04-15 19:06:00
2:53 PM,78.1,69.1,74,29.91,10.0,South,9.2,-,N/A,,Overcast,180,2013-04-15 19:53:00
3:38 PM,78.8,69.8,74,29.90,9.0,SSE,5.8,-,N/A,,Scattered Clouds,150,2013-04-15 20:38:00
3:53 PM,79.0,70.0,74,29.89,9.0,SSE,8.1,-,N/A,,Scattered Clouds,160,2013-04-15 20:53:00
4:02 PM,78.8,69.8,74,29.90,9.0,South,11.5,-,N/A,,Mostly Cloudy,180,2013-04-15 21:02:00
4:10 PM,78.8,69.8,74,29.90,9.0,South,9.2,-,N/A,,Mostly Cloudy,190,2013-04-15 21:10:00
4:53 PM,80.1,71.1,74,29.89,10.0,South,10.4,-,N/A,,Scattered Clouds,190,2013-04-15 21:53:00
5:32 PM,78.8,71.6,78,29.89,10.0,South,12.7,-,N/A,,Mostly Cloudy,170,2013-04-15 22:32:00
5:53 PM,77.0,71.1,82,29.89,10.0,SSE,11.5,-,N/A,,Mostly Cloudy,150,2013-04-15 22:53:00
6:28 PM,73.4,71.6,94,29.91,8.0,SSE,9.2,-,0.00,Rain,Light Rain,150,2013-04-15 23:28:00
6:49 PM,73.4,71.6,94,29.91,5.0,SSE,6.9,-,0.00,,Overcast,150,2013-04-15 23:49:00
6:53 PM,73.9,72.0,93,29.90,5.0,SSE,8.1,-,0.00,,Overcast,150,2013-04-15 23:53:00
7:53 PM,73.0,72.0,96,29.91,5.0,SSE,6.9,-,N/A,,Overcast,150,2013-04-16 00:53:00
8:53 PM,73.0,72.0,96,29.94,5.0,SE,5.8,-,N/A,,Overcast,140,2013-04-16 01:53:00
9:53 PM,72.0,71.1,97,29.97,4.0,SE,10.4,-,0.00,,Overcast,140,2013-04-16 02:53:00
10:53 PM,71.1,70.0,96,29.98,2.5,SE,8.1,-,0.01,,Overcast,140,2013-04-16 03:53:00
11:07 PM,71.6,69.8,94,29.99,2.5,SE,9.2,-,N/A,,Overcast,140,2013-04-16 04:07:00
11:14 PM,71.6,69.8,94,29.99,3.0,SE,10.4,-,N/A,,Overcast,140,2013-04-16 04:14:00
11:53 PM,71.1,70.0,96,29.97,4.0,SSE,9.2,-,N/A,,Overcast,150,2013-04-16 04:53:00